Weather in Vaneyevo

Russia / Vologda Oblast     59°06′35″N   38°04′49″E
temp.,
°C
wind,
m/s
gust,
m/s
humid.,
%
clouds,
%
prec.,
mm/h
press.,
hPa
HPBL,
m
14 june, mon
mon1400:00+16sw23815 0.0 100858
03:00+14sw12875 0.0 100919
06:00+16sw2384100 0.0 101081
09:00+17w247586 0.0 1012204
12:00+19wnw4570100 0.9 1013474
15:00+19nw467618 2.1 1014645
18:00+18nw3779100 1.4 1014397
21:00+16nnw2278100 1.4 101430
15 june, tue
tue1500:00+14ne117998 0.0 101511
03:00+13ese118137 0.0 101511
06:00+15sse227653 0.0 101471
09:00+17s34656 0.0 1013393
12:00+19sse45575 0.0 1012704
15:00+19s476758 0.0 1010277
18:00+20s35600 0.0 1008339
21:00+17ssw23750 0.0 100852
16 june, wed
wed1600:00+16nw377237 0.0 1009160
03:00+13nw3593100 0.4 1010167
06:00+14nw25843 0.1 1011199
09:00+17nw47540 0.1 10121047
12:00+19nw47395 0.0 10131524
15:00+20nw58335 0.0 10141976
18:00+19nw69362 0.0 10151627
21:00+16nw3650100 0.0 1016287
17 june, thu
thu1700:00+14wnw36586 0.0 1018151
03:00+12wnw410635 0.0 1020298
06:00+13wnw47520 0.0 1022281
09:00+18w47500 0.0 1022813
12:00+21nw46423 0.0 10221420
15:00+22nw47354 0.0 10221546
18:00+22nw354130 0.0 10221337
21:00+18ssw11596 0.0 102312
18 june, fri
fri1800:00+16wnw11665 0.0 102411
03:00+15nw12685 0.0 102511
06:00+16w22660 0.0 102583
09:00+19wsw24550 0.0 1025412
12:00+23sw35465 0.0 10241060
15:00+24sw464525 0.0 10231280
18:00+24sw47466 0.0 1022834
21:00+21wsw410560 0.0 1022257